Regional Weather Roundup
Issued by NWS Goodland, KS

Home | Current Version | Previous Version | Text Only | Print | Product List | Glossary On
Versions: 1 2 3 4 5 6 7 8 9 10 11 12 13 14 15 16 17 18 19 20 21 22 23 24 25 26 27 28 29 30 31 32 33 34 35 36 37 38 39 40 41 42 43 44 45 46 47 48 49 50
461
ASUS43 KGLD 220259
RWRGLD

GOODLAND FORECAST AREA HOURLY WEATHER ROUNDUP
NATIONAL WEATHER SERVICE GOODLAND KS
900 PM MDT MON MAY 21 2018

...OFFICIAL OBSERVATIONS...

CITY           SKY/WX    TMP DP  RH WIND       PRES   REMARKS
GOODLAND KS    CLOUDY    66  56  70 S13       29.91F
HILL CITY KS   CLOUDY    72  59  63 SE9       29.93R
IMPERIAL NEB   MOCLDY    67  58  72 SE9       29.91S
MCCOOK NEB     CLOUDY    70  60  70 SE9       29.90S
AKRON CO       MOCLDY    65  54  67 NE9       29.96S
BURLINGTON CO  MOCLDY    68  43  40 SW13      29.95R
LIMON CO       NOT AVBL
$$

...UNOFFICIAL OBSERVATIONS...

CITY           SKY/WX    TMP DP  RH WIND       PRES   REMARKS
NORTON KS      CLEAR     70  57  64 SE8       29.92
SHARON SPRINGS   N/A     69  56  64 MISG        N/A
KIT CARSON CO    N/A     70  42  35 MISG        N/A
YUMA CO        FAIR      64  37  36 SE8       29.93S
$$




USA.gov is the U.S. government's official web portal to all federal, state and local government web resources and services.